Showing default

ICEYE-X39, 60546

Orbit data source: Space-Track

ICEYE-X39, 60546 is a payload satellite owned by ICEYE in SSO that was launched on Fri, 16 Aug 2024 UTC via an FALCON 9 launch vehicle from the Air Force Western Test Range (AFWTR). Payload-class satellites include a variety of spacecraft equipped with specific instruments for various scientific and technological missions. These include communications satellites like Starlink; space stations such as the ISS; scientific satellites like the Hubble; Earth observation satellites from companies like Planet Labs, Umbra, and HawkEye 360; GPS; miniature CubeSats for education and research; and military/defense satellites.

Loading next visibility...
Identifier
60546, 2024-149CG
Orbit
SSO
Country
Flag of FIFI
Related business
Manufacturer
ICEYE
Mission
Operational Commercial Radar Imaging
Bus & Motor
ICEYE, Unknown motor
Mass
80 kg wet, 80 kg dry
Launch date (UTC)
2024-08-16 (2 years ago)
Launch vehicle
FALCON 9
Launch site
Air Force Western Test Range (AFWTR)
Object type
Payload
Rocket body
Debris
Shape & HBR
Box + 1 Pan, 1.4 m
Radar Cross Section
0.776 m², Medium (>0.1 m² and < 1m²)

Expand to show TLE details & history
Last TLE update: 12 hours ago

TLE from 12 hours ago
0 ICEYE-X39
1 60546U 24149CG  26265.73293803  .00001457  00000-0  12182-3 0  9991
2 60546  97.6709 341.4689 0010026 165.9513 194.1992 15.00014698114741
Epoch: 2026-09-22T17:35Z
TLE epoch observation values (Epoch: 2026-09-22T17:35:25.845Z)
Latitude
0.00003°
Longitude
76.01703°
Altitude
576.659 km
Speed
7.569 km/s
True Right ascension
22h 45m 52s
True Declination
0° 00' 00"
Sunlit
Object was in full shadow at epoch
Visualization orbit readout
Latitude
Unknown
Longitude
Unknown
Altitude
Unknown
Speed
Unknown
Apparent Right ascension
Unknown
Apparent Declination
Unknown
Sunlit
N/A
Visualization observer readout
Local Sidereal Time
22:14:24
Azimuth
Unknown
Elevation
Unknown
Doppler factor
Unknown
Orbital elements
Apogee altitude
570.815 km
Perigee altitude
556.895 km
Semi-major axis
6,941.992 km
Eccentricity
0.001
Inclination
97.6709°
RAAN
341.4689°
Arg. of periapsis
165.9513°
True anomaly
194.17105°
Mean anomaly
194.1992°
Eccentric anomaly
194.18512°
Mean motion
3.75247 °/min
Orbital period
95.94 mins
BSTAR
0.00012182
Loading maneuver chart data...
Computing Atmospheric mass density...
Loading historical data...
Loading historical data...
Loading historical data...
Loading historical data...
Loading historical data...
Loading historical data...
Loading historical data...

Documentation

Showing up to 5 results
|